Regional Weather Roundup
Issued by NWS Upton, NY

Current Version | Previous Version | Text Only | Print | Product List | Glossary On
Versions: 1 2 3 4 5 6 7 8 9 10 11 12 13 14 15 16 17 18 19 20 21 22 23 24 25 26 27 28 29 30 31 32 33 34 35 36 37 38 39 40 41 42 43 44 45 46 47 48 49 50
294 ASUS41 KOKX 180208 RWROKX Regional Weather Roundup National Weather Service New York NY 900 PM EST SUN DEC 17 2017 Note: "FAIR" indicates few or no clouds below 12,000 feet with no significant weather and/or obstructions to visibility. NYZ071-072-176-178-NJZ106-104-180300- New York City Metro Area CITY SKY/WX TMP DP RH WIND PRES REMARKS Central Park CLOUDY 36 25 64 VRB5 30.27F WCI 32 Bronx Bot Gard N/A 34 25 69 E5 30.27F WCI 30 Bronx Lehman C N/A 34 27 75 E5 N/A WCI 30 LaGuardia Arpt CLOUDY 35 25 66 NE7 30.25S WCI 29 Queens College N/A 34 25 69 NE5 N/A WCI 30 Kennedy Intl CLOUDY 33 25 72 NE7 30.26F WCI 27 Breezy Point N/A 36 N/A N/A NE6 N/A WCI 31 Brooklyn Coll N/A 36 27 69 NE5 N/A WCI 32 Staten Island N/A 37 30 75 E2 N/A Newark/Liberty NOT AVBL Teterboro CLOUDY 35 26 69 NE3 30.25F $$ NYZ177-179-078>081-180300- Long Island New York CITY SKY/WX TMP DP RH WIND PRES REMARKS Jones Beach N/A 34 N/A N/A E8 N/A WCI 27 Wantagh N/A 32 25 74 NE5 N/A WCI 27 Matinecock Pt N/A 34 N/A N/A SE6 N/A WCI 29 Farmingdale CLOUDY 32 24 72 E3 30.26F MacArthur/ISP CLOUDY 33 24 69 CALM 30.26F Shirley CLOUDY 32 23 69 CALM 30.27F Mt Sinai Harb N/A N/A N/A N/A NE3 N/A Westhampton CLOUDY 30 22 72 NE5 30.28F WCI 25 East Hampton CLOUDY 28 20 72 CALM 30.27F Southold N/A 30 23 74 E3 N/A Montauk N/A 34 9 35 N7 30.29S WCI 28 $$ NYZ052-065-067-180300- Hudson Valley CITY SKY/WX TMP DP RH WIND PRES REMARKS White Plains CLOUDY 30 19 63 CALM 30.23F Larchmont Harb N/A 32 N/A N/A N6 N/A WCI 26 Croton On Huds N/A 32 N/A N/A NE1 N/A Somers N/A 30 19 64 E1 N/A Brewster N/A 28 18 64 CALM N/A Newburgh CLOUDY 27 19 74 CALM 30.25F Montgomery CLOUDY 26 17 68 N6 30.23F WCI 19 Otisville N/A 27 19 74 NE2 N/A Warwick N/A 30 23 74 NE1 N/A Suffern N/A 30 25 80 CALM N/A Poughkeepsie CLOUDY 27 15 61 CALM 30.26F Albany CLOUDY 21 10 62 N5 30.27F WCI 15 $$ NJZ001-105-106-008-010-013-015-019>022-104-180300- New Jersey CITY SKY/WX TMP DP RH WIND PRES REMARKS Newark/Liberty NOT AVBL Teterboro CLOUDY 35 26 69 NE3 30.25F Caldwell MOCLDY 33 24 69 E5 30.25F WCI 29 Somerville CLOUDY 31 28 89 CALM 30.22F Linden CLOUDY 37 27 66 CALM 30.25F Perth Amboy N/A 37 N/A N/A E9 N/A WCI 31 Sussex CLOUDY 30 22 72 NE5 30.22F WCI 25 Andover N/A 31 24 75 N3 30.21F Trenton PTCLDY 35 29 78 NE5 30.22F WCI 31 Millville CLOUDY 38 33 82 CALM 30.20F Atlantic City CLOUDY 40 36 86 CALM 30.21F Wrightstown MOCLDY 33 30 88 CALM 30.20S Toms River PTCLDY 31 29 92 CALM 30.23F Belmar CLOUDY 39 35 86 E6 30.23F WCI 35 $$ PAZ047>061-062-071-180300- Eastern Pennsylvania CITY SKY/WX TMP DP RH WIND PRES REMARKS Philadelphia CLOUDY 39 30 70 E7 30.22F WCI 34 Allentown MOCLDY 33 25 72 NE3 30.21F Scranton CLOUDY 31 25 78 NE3 30.16F $$ CTZ002-004>006-009-010-012-RIZ004-006-007-MAZ004-011-015-180300- Southern New England In CT CITY SKY/WX TMP DP RH WIND PRES REMARKS Bradley Intl CLOUDY 26 11 52 CALM 30.27F Hartford CLOUDY 29 9 43 CALM 30.28F Danbury CLOUDY 29 17 61 CALM 30.26S Wtrbury/Oxford CLOUDY 27 14 58 CALM 30.24F Norwalk Harbor N/A N/A N/A N/A N9 N/A Bridgeport CLOUDY 32 14 47 NE5 30.27F WCI 27 Meriden CLOUDY 28 17 63 CALM 30.27F New Haven CLOUDY 30 15 53 E3 30.27F Chester FAIR 28 9 43 CALM 30.26S Groton CLOUDY 30 11 45 N5 30.28F WCI 25 Willimantic CLOUDY 26 16 65 CALM 30.27F In RI CITY SKY/WX TMP DP RH WIND PRES REMARKS Providence CLOUDY 27 12 53 CALM 30.29S Block Island PTCLDY 31 13 47 N6 30.28S WCI 25 Westerly CLOUDY 28 17 63 CALM 30.28F In MA CITY SKY/WX TMP DP RH WIND PRES REMARKS Boston CLOUDY 26 5 40 N6 30.29S WCI 19 Worcester CLOUDY 22 3 44 CALM 30.21S Westfield MOCLDY 25 9 50 CALM 30.26F Provincetown PTCLDY 29 11 47 NW9 N/A WCI 20 Nantucket CLOUDY 29 12 49 N6 30.28R WCI 23 $$ ANZ330-335-338-340-345-350-353-355-180300- Coastal Marine Observations STATION/POSITION TIME SKY/WX TEMP WIND PRES VSBY WAVE AIR SEA DIR/SP/G HT/PER (UTC) (F) (DEG/KT/KT) (MB) (MI) (FT/S) NY Harb Entrance 0050 39 50 80/ 8/ 10 1024.5 1/ 5 20 S Fire Island 0050 39 50 60/ 8/ 12 1024.9 2/ 6 15 E Barnegat Li 0130 49 N/A 2/ 6 Hudson Canyon 0050 45 54 80/ 6/ 10 1024.2 2/ 6 Kings Point 0124 33 42 150/ 2/ 5 1025.4 Execution Rocks 0130 35 120/ 6/ 8 N/A Western LI Sound NOT AVBL Central LI Sound 0100 34 30/ 4/ 6 N/A 0 Robbins Reef 0142 37 100/ 7/ 8 1024.7 $$ >>>>>>>>>>>>>>>>>>>>>>>>>>>> KEY <<<<<<<<<<<<<<<<<<<<<<<<<<< > < > SKY/WX - Sky Condition/Present Weather < > TMP - Temperature in Fahrenheit < > DP - Dew Point in Fahrenheit < > RH - Relative Humidity in Percent < > WIND - Direction (from) and Speed in MPH < > PRES - Mean Sea Level Pressure (inches of Hg) < > WCI - Wind Chill Index < > VSB - Visibility in Miles < > HX - Heat Index < > TC - Temperature in Celsius < > VRB - Varibale Wind Direction < > < >>>>>>>>>>>>>>>>>>>>>>>>>>>> KEY <<<<<<<<<<<<<<<<<<<<<<<<<<<

USA.gov is the U.S. government's official web portal to all federal, state and local government web resources and services.